Clarksville, TN

10:55 AM CDT on April 26, 2017 (GMT -0500)
Outlaw

Weather History for KCKV - January, 2012

Change the Weather History Date:

Friday, January 6, 2012

  Actual Average Record
Temperature  
Mean Temperature 52 °F 36 °F  
Max Temperature 65 °F 45 °F 68 °F (1956)
Min Temperature 38 °F 26 °F 2 °F (2014)
Degree Days  
Heating Degree Days 13    
Month to date heating degree days 154  
Since 1 July heating degree days 1539  
Cooling Degree Days 0    
Month to date cooling degree days 0  
Year to date cooling degree days  
Moisture  
Dew Point 37 °F    
Average Humidity 52    
Maximum Humidity 72    
Minimum Humidity 31    
Precipitation  
Precipitation 0.00 in 0.10 in 2.02 in (1991)
Month to date precipitation 0.00 0.66  
Year to date precipitation 0.66  
Sea Level Pressure  
Sea Level Pressure 29.97 in    
Wind  
Wind Speed 9 mph (SSW)    
Max Wind Speed 18 mph    
Max Gust Speed 24 mph    
Visibility 10 miles    
Events      
T = Trace of Precipitation, MM = Missing Value Source: NWS Daily Summary

Daily Weather History Graph

Daily Weather History Graph

Search for Another Location

Airport or City:

Trip Planner

Search our weather history database for the weather conditions in past years. The results will help you decide how hot, cold, wet, or windy it might be!

Date:

Astronomy

Jan. 06, 2012 Rise Set
Actual Time 7:02 AM CST 4:48 PM CST
Civil Twilight 6:33 AM CST 5:17 PM CST
Nautical Twilight 6:01 AM CST 5:49 PM CST
Astronomical Twilight 5:30 AM CST 6:20 PM CST
Moon 2:39 PM CST (1/6) 4:41 AM CST (1/6)
Length of Visible Light 10h 43m
Length of Day
9h 46m
Waxing Gibbous, 93% of the Moon is Illuminated
Jan 6
Waxing Gibbous
Jan 9
Full
Jan 16
Last Quarter
Jan 23
New
Jan 30
First Quarter

Hourly Weather History & Observations

Time (CST) Temp. Windchill Dew Point Humidity Pressure Visibility Wind Dir Wind Speed Gust Speed Precip Events Conditions
12:52 AM 45.0 °F 41.2 °F 28.9 °F 53% 30.03 in 10.0 mi SSW 6.9 mph - N/A   Clear
1:52 AM 42.1 °F 38.4 °F 28.9 °F 60% 30.02 in 10.0 mi SSW 5.8 mph - N/A   Clear
2:52 AM 42.1 °F 39.2 °F 28.0 °F 58% 30.02 in 10.0 mi South 4.6 mph - N/A   Clear
3:52 AM 42.1 °F 38.4 °F 28.0 °F 58% 30.02 in 10.0 mi South 5.8 mph - N/A   Clear
4:52 AM 39.0 °F 34.0 °F 28.0 °F 65% 30.03 in 10.0 mi South 6.9 mph - N/A   Clear
5:52 AM 39.9 °F 35.1 °F 30.0 °F 68% 30.04 in 10.0 mi SSW 6.9 mph - N/A   Clear
6:52 AM 37.9 °F 32.7 °F 28.9 °F 70% 30.04 in 10.0 mi SSW 6.9 mph - N/A   Clear
7:52 AM 42.1 °F 38.4 °F 30.9 °F 65% 30.04 in 10.0 mi SSW 5.8 mph - N/A   Clear
8:52 AM 46.9 °F - 33.1 °F 59% 30.05 in 10.0 mi SSW 8.1 mph - N/A   Clear
9:52 AM 52.0 °F - 34.0 °F 50% 30.04 in 10.0 mi SW 9.2 mph - N/A   Clear
10:52 AM 57.0 °F - 35.1 °F 44% 30.01 in 10.0 mi SW 11.5 mph 23.0 mph N/A   Clear
11:52 AM 61.0 °F - 36.0 °F 39% 29.98 in 10.0 mi SW 12.7 mph 19.6 mph N/A   Clear
1:52 PM 64.0 °F - 34.0 °F 33% 29.92 in 10.0 mi SW 12.7 mph 19.6 mph N/A   Clear
2:52 PM 64.9 °F - 36.0 °F 34% 29.91 in 10.0 mi SW 11.5 mph - N/A   Clear
3:52 PM 64.9 °F - 37.0 °F 36% 29.91 in 10.0 mi SW 13.8 mph - N/A   Clear
4:52 PM 61.0 °F - 39.0 °F 44% 29.91 in 10.0 mi SSW 9.2 mph - N/A   Clear
5:52 PM 57.9 °F - 39.0 °F 49% 29.92 in 10.0 mi South 5.8 mph - N/A   Clear
6:52 PM 55.9 °F - 41.0 °F 57% 29.92 in 10.0 mi South 6.9 mph - N/A   Overcast
7:52 PM 57.9 °F - 45.0 °F 62% 29.92 in 10.0 mi SSW 10.4 mph - N/A   Scattered Clouds
8:52 PM 60.1 °F - 48.9 °F 67% 29.92 in 10.0 mi SW 9.2 mph - N/A   Mostly Cloudy
9:52 PM 60.1 °F - 51.1 °F 72% 29.91 in 10.0 mi SSW 10.4 mph - N/A   Mostly Cloudy
10:52 PM 60.1 °F - 52.0 °F 75% 29.90 in 10.0 mi SW 10.4 mph 20.7 mph N/A   Mostly Cloudy
11:52 PM 59.0 °F - 52.0 °F 78% 29.91 in 10.0 mi WSW 9.2 mph - N/A   Mostly Cloudy